This is the latest recevied weather packets stored in our database for station/object W4MLN-1. If no packets are shown the sender has not sent any weather packets the latest 10 day(s).
| Time | Temp. | Humidity | Pressure | Rain* | Wind** | Luminosity | Snow |
|---|---|---|---|---|---|---|---|
| 1777667966 | 17.22° C | 38% | 1011.4 hPa | 0 mm | - | 517 W/m² | - |
| 1777667664 | 17.22° C | 38% | 1011.3 hPa | 0 mm | - | 509 W/m² | - |
| 1777667362 | 17.22° C | 40% | 1011.7 hPa | 0 mm | - | 503 W/m² | - |
| 1777667062 | 17.22° C | 38% | 1011.7 hPa | 0 mm | - | 504 W/m² | - |
| 1777666762 | 17.22° C | 40% | 1011.4 hPa | 0 mm | - | 569 W/m² | - |
| 1777666462 | 17.22° C | 40% | 1011.4 hPa | 0 mm | - | 681 W/m² | - |
| 1777666162 | 17.22° C | 40% | 1011.5 hPa | 0 mm | - | 736 W/m² | - |
| 1777665862 | 17.78° C | 40% | 1011.4 hPa | 0 mm | - | 712 W/m² | - |
| 1777665563 | 17.78° C | 39% | 1011.4 hPa | 0 mm | - | 737 W/m² | - |
| 1777665262 | 17.22° C | 40% | 1011.7 hPa | 0 mm | - | 726 W/m² | - |
| 1777664963 | 17.22° C | 39% | 1011.7 hPa | 0 mm | - | 694 W/m² | - |
| 1777664662 | 17.22° C | 41% | 1011.8 hPa | 0 mm | - | 563 W/m² | - |
| 1777664363 | 17.22° C | 38% | 1011.9 hPa | 0 mm | - | 370 W/m² | - |
| 1777664062 | 17.78° C | 39% | 1011.9 hPa | 0 mm | - | 352 W/m² | - |
| 1777663759 | 17.78° C | 39% | 1012 hPa | 0 mm | - | 373 W/m² | - |
| 1777663459 | 17.22° C | 44% | 1011.9 hPa | 0 mm | - | 831 W/m² | - |
| 1777663159 | 16.67° C | 49% | 1012 hPa | 0 mm | - | 785 W/m² | - |
| 1777662860 | 16.67° C | 50% | 1012.2 hPa | 0 mm | - | 821 W/m² | - |
| 1777662559 | 16.11° C | 52% | 1012.2 hPa | 0 mm | - | 564 W/m² | - |
| 1777662260 | 16.67° C | 50% | 1012.3 hPa | 0 mm | - | 266 W/m² | - |
| 1777661960 | 17.22° C | 52% | 1012.4 hPa | 0 mm | - | 720 W/m² | - |
| 1777661660 | 17.22° C | 48% | 1012.3 hPa | 0 mm | - | 837 W/m² | - |
| 1777661359 | 17.22° C | 48% | 1012.4 hPa | 0 mm | - | 815 W/m² | - |
| 1777661060 | 17.78° C | 50% | 1012.4 hPa | 0 mm | - | 855 W/m² | - |
| 1777660760 | 17.78° C | 47% | 1012.3 hPa | 0 mm | - | 1060 W/m² | - |
* Rain latest hour (hover to see other rain measurements)
** Current wind speed in m/s (hover to see current wind gust speed)